Miscellaneous Local Product
Issued by NWS Hastings, NE

Home | Current Version | Previous Version | Graphics & Text | Print | Product List | Glossary On
Versions: 1 2 3 4 5 6 7 8 9 10 11 12 13 14 15 16 17 18 19 20 21 22 23 24 25 26 27 28 29 30 31 32 33 34 35 36 37 38 39 40 41 42 43 44 45 46 47 48 49 50
756
AXUS43 KGID 290102
MISGRI

GID CWA HOURLY WEATHER ROUNDUP
NATIONAL WEATHER SERVICE HASTINGS NE
800 PM CDT FRI APR 28 2017

NOTE: "FAIR" INDICATES FEW OR NO CLOUDS BELOW 12,000 FEET WITH NO
SIGNIFICANT WEATHER AND/OR OBSTRUCTIONS TO VISIBILITY.

...SOUTH CENTRAL NEBRASKA...

CITY           SKY/WX    TMP DP  RH WIND       PRES   REMARKS
GRAND ISLAND   CLOUDY    38  38 100 NE17      29.96S WCI  28
HASTINGS       CLOUDY    38  36  92 NE21      29.95R WCI  28
KEARNEY        CLOUDY    37  34  87 NE17      29.97R WCI  28
ORD            CLOUDY    40  33  76 N8        29.98S WCI  34
YORK           CLOUDY    39  39 100 NE17G23   29.95S WCI  30
AURORA         CLOUDY    38  37  97 NE18      29.95S WCI  29
LEXINGTON      CLOUDY    38  34  85 NE17      29.97R WCI  28
HOLDREGE       CLOUDY    37  35  91 NE18G24   29.94R WCI  27
HEBRON         CLOUDY    40  39  96 NE17G25   29.93R WCI  32

...NEBRASKA PANHANDLE...

CITY           SKY/WX    TMP DP  RH WIND       PRES   REMARKS
CHADRON        CLOUDY    42  31  64 N7        30.07R
ALLIANCE       LGT SNOW  34  32  92 NE7       30.03R FOG     WCI  28
SCOTTSBLUFF    LGT SNOW  34  31  88 N10       30.05R FOG     WCI  26
SIDNEY         CLOUDY    32  30  92 NE16      30.00R WCI  21

...WESTERN AND NORTH CENTRAL NEBRASKA...

CITY           SKY/WX    TMP DP  RH WIND       PRES   REMARKS
VALENTINE      CLOUDY    47  24  40 NE8       30.04R
AINSWORTH      CLOUDY    43  30  59 NE8       30.03R
ONEILL         CLOUDY    45  28  51 NE10      30.04R
BROKEN BOW     CLOUDY    39  33  79 NE14      29.97F WCI  31
IMPERIAL       CLOUDY    37  31  78 NE18G26   29.95S WCI  27
NORTH PLATTE   CLOUDY    38  33  82 NE13G20   30.00R WCI  30
MCCOOK         CLOUDY    38  36  92 NE17      29.95R WCI  28

...EASTERN NEBRASKA...

CITY           SKY/WX    TMP DP  RH WIND       PRES   REMARKS
NORFOLK        CLOUDY    42  34  73 N8        29.99R
SO SIOUX CITY  CLOUDY    46  35  65 NE8       29.99R
TEKAMAH        CLOUDY    43  38  82 N10       29.98R
COLUMBUS       CLOUDY    41  36  81 NE13      29.97S
ALBION         CLOUDY    42  36  77 N6        29.99S
OMAHA EPPLEY   DRIZZLE   42  38  85 NE14      29.96R FOG
OFFUTT AFB     CLOUDY    42  39  90 N9G16     29.94R
MILLARD        CLOUDY    43  41  93 N8        29.96R FOG
LINCOLN        CLOUDY    40  38  93 NE18G25   29.96R WCI  31
NEBRASKA CITY  CLOUDY    41  41 100 NE14G21   29.93R FOG
BEATRICE       CLOUDY    41  39  93 NE13G21   29.93R
FALLS CITY     CLOUDY    44  41  89 N13       29.88R

...NORTHERN KANSAS...

CITY           SKY/WX    TMP DP  RH WIND       PRES   REMARKS
GOODLAND       CLOUDY    35  34  96 NE16      29.93R FOG     WCI  25
HILL CITY      CLOUDY    40  38  93 NE16G23   29.93R WCI  31
NORTON         CLOUDY    37  32  81 N12       29.94R WCI  30
PHILLIPSBURG   CLOUDY    39  36  87 N16       29.94R WCI  30
SMITH CENTER   CLOUDY    39  36  87 NE14G25   29.93R WCI  31
HAYS           CLOUDY    44  40  85 NE18      29.89R
RUSSELL        CLOUDY    45  40  82 N15       29.88R
CONCORDIA      CLOUDY    41  40  96 N18       29.91R
SALINA         CLOUDY    49  43  80 N17       29.89R
TOPEKA         CLOUDY    49  48  97 N13       29.86R



USA.gov is the U.S. government's official web portal to all federal, state and local government web resources and services.